Theta_e
316 316 316 316 316 316 316 314 314 313 314 314 315 316 317 317 317 317 315 312 316 324 320 312 313 312 313 312 315 317 306 304 305 306 308 314 311 315 317 314 316 321 322 323 326
315 316 316 316 316 316 316 315 314 314 314 314 315 315 316 317 316 316 319 322 323 322 316 308 307 311 309 309 312 310 306 305 311 312 310 313 314 312 314 313 315 318 323 325 325
314 315 315 315 315 316 315 314 313 314 314 314 315 315 316 317 316 313 324 321 322 322 316 310 310 310 307 309 309 309 305 310 311 312 313 312 313 316 313 311 314 315 319 323 322
314 314 315 315 315 314 314 314 313 313 314 314 314 314 316 317 305 317 326 324 325 322 316 312 308 306 304 304 309 304 308 309 310 312 311 311 315 313 315 314 317 317 319 322 322
314 314 314 313 313 313 313 313 313 313 313 314 314 315 317 311 310 322 327 324 321 316 311 309 307 306 303 306 307 305 306 308 310 309 310 313 311 312 313 317 318 317 315 320 322
312 312 312 312 312 312 313 313 313 313 313 313 314 315 316 304 317 322 320 317 316 313 310 310 308 309 305 305 304 307 306 306 308 307 308 306 307 308 310 316 315 315 313 316 320
311 311 311 311 312 312 313 314 314 313 314 314 315 316 311 306 316 320 317 315 314 312 309 310 311 307 307 304 308 305 301 304 305 306 305 307 303 304 310 313 312 312 312 313 318
311 311 310 311 311 312 313 313 314 314 314 315 316 317 308 312 317 315 317 313 314 313 311 312 311 308 306 308 304 301 301 297 303 305 306 305 298 306 310 311 310 310 311 311 311
310 310 310 310 311 312 312 313 316 316 315 316 317 315 307 313 310 314 315 310 310 311 311 310 308 305 306 300 298 300 295 297 300 304 303 303 299 306 310 309 309 310 311 311 311
310 310 310 310 311 311 312 313 315 315 317 319 318 309 312 305 310 311 314 311 307 307 307 306 305 302 302 298 292 295 296 298 297 302 302 300 300 304 308 308 308 309 310 311 311
310 310 310 310 310 311 313 317 314 313 315 310 307 308 308 312 314 310 312 309 308 306 301 305 300 297 300 302 301 299 297 296 300 302 300 299 300 302 306 306 307 308 309 310 311
309 310 310 310 311 311 314 312 310 312 305 310 308 308 310 311 305 308 311 303 303 299 303 300 296 301 302 301 299 298 295 296 299 302 300 299 299 302 304 305 306 307 308 309 310
309 309 311 311 311 313 315 312 317 315 306 305 307 306 307 309 305 305 308 305 301 300 300 297 300 301 300 298 296 297 295 296 296 299 300 298 296 300 304 306 307 308 309 309 310
309 310 311 311 308 318 314 316 317 317 301 301 302 306 308 308 303 310 310 306 302 299 300 300 302 298 297 296 298 294 299 298 296 295 290 299 289 298 302 302 304 306 307 308 310
309 310 311 309 319 314 315 316 317 316 292 302 303 312 308 304 304 305 310 306 300 300 300 297 299 297 295 297 299 296 299 298 297 295 294 294 291 296 301 299 302 305 307 308 310
309 309 310 315 319 315 316 317 317 301 291 298 303 301 302 303 303 305 305 307 306 301 302 300 304 301 299 300 300 300 297 297 297 295 288 293 293 293 297 300 302 305 305 305 308
307 308 310 317 313 318 319 315 301 294 302 298 298 301 301 300 302 303 301 301 298 294 295 299 299 302 302 298 300 299 295 288 286 286 286 296 292 295 299 301 302 304 304 305 308
306 306 313 317 320 319 316 306 294 299 299 302 300 300 297 301 301 301 299 298 302 300 296 293 291 299 302 299 296 296 295 289 282 284 287 293 289 295 301 303 304 303 305 307 307
304 317 319 322 320 318 308 298 298 300 300 298 299 296 297 300 298 298 298 297 300 301 295 293 293 301 301 302 300 296 292 297 291 291 286 290 295 299 302 301 302 303 305 306 308
312 314 315 320 321 314 305 297 301 302 302 300 294 297 293 296 297 297 296 299 297 301 303 298 291 299 300 302 301 298 299 290 291 283 282 287 289 290 296 299 301 301 303 305 307
315 309 316 321 318 307 298 300 302 304 302 298 297 295 296 295 296 295 296 299 301 300 302 299 296 295 298 295 294 295 293 294 293 290 284 283 286 298 297 300 300 302 305 306 307
311 303 316 317 303 305 299 300 296 299 301 299 299 298 296 296 295 295 295 298 302 301 296 300 296 291 293 299 300 298 295 293 287 287 289 288 288 301 301 302 303 303 305 307 309
304 305 317 310 298 300 302 300 300 298 297 297 297 300 301 297 293 296 297 302 302 300 298 299 294 288 291 295 297 294 296 296 295 294 289 287 289 302 302 303 304 304 306 307 308
302 299 306 307 306 299 298 297 296 300 298 300 299 300 298 296 298 295 296 300 301 300 300 300 295 291 286 290 291 288 293 295 294 289 289 290 291 297 299 301 303 305 307 307 308
305 301 301 297 300 300 299 298 296 296 299 300 297 297 296 293 295 294 297 298 299 302 299 299 289 291 292 293 294 293 292 292 291 293 288 292 291 294 299 300 302 305 306 306 307
297 297 299 296 301 299 298 296 295 295 296 295 295 295 296 293 294 292 295 296 295 299 296 297 290 291 289 292 292 290 292 292 293 293 293 293 292 300 302 302 302 304 304 306 306
301 302 298 296 298 296 297 295 294 296 296 297 295 294 293 294 297 298 299 299 297 294 293 293 291 290 285 291 290 287 292 292 294 295 294 290 294 300 298 301 303 304 306 305 306
Wind_Speed
15 14 15 14 14 14 14 15 15 14 14 14 15 15 15 16 19 17 13 5 5 5 7 13 10 12 14 17 20 18 18 19 25 23 19 9 19 15 16 18 21 20 22 7 7
14 15 14 14 14 14 14 14 14 14 13 14 14 15 15 15 18 14 9 8 4 3 11 10 12 12 14 16 18 18 16 25 22 20 19 17 19 9 12 11 18 19 22 16 5
15 15 14 14 15 14 14 13 14 13 13 13 14 15 15 16 14 11 8 7 7 9 12 8 10 9 17 17 18 20 22 22 21 20 21 20 16 13 12 14 12 16 18 25 5
17 16 15 15 14 15 14 13 12 12 12 12 13 14 16 14 3 11 9 7 7 13 10 5 10 13 15 17 18 20 22 20 21 22 19 16 17 21 17 18 12 7 18 21 16
17 17 17 16 16 16 14 13 12 12 11 11 12 12 12 10 5 13 9 8 11 10 7 5 9 10 15 14 14 18 18 19 21 14 20 17 16 22 24 13 17 11 15 18 18
17 18 18 18 17 16 14 13 13 12 11 10 11 11 12 14 8 13 12 9 10 9 2 8 5 7 11 14 14 14 11 17 20 13 19 19 22 24 25 19 21 18 17 19 20
17 17 17 18 18 17 16 14 13 12 12 10 9 10 12 6 3 9 8 10 1 5 10 3 8 10 7 12 14 11 17 18 18 18 21 19 25 27 22 22 23 18 16 16 19
17 17 17 17 17 17 17 16 15 11 10 10 8 11 10 3 6 7 9 8 7 7 8 8 8 13 10 14 9 17 18 19 18 23 21 17 26 22 22 22 27 13 18 10 16
18 17 18 17 17 16 16 16 11 6 8 9 9 11 6 6 12 11 9 8 4 7 6 6 12 13 14 12 16 17 16 19 20 8 7 18 21 19 21 9 11 14 13 13 13
19 17 17 17 16 16 16 14 2 9 10 10 10 8 7 10 8 5 7 7 7 6 9 11 10 13 14 14 14 15 16 14 17 9 14 17 20 18 17 16 17 17 17 16 13
20 18 16 15 15 13 14 6 8 9 12 12 2 8 2 2 4 10 9 10 9 10 13 14 10 13 15 12 11 14 17 17 16 10 13 16 20 20 20 20 19 17 19 18 16
20 18 16 14 13 12 9 6 7 8 10 7 9 7 4 3 8 11 8 11 12 14 14 10 15 16 16 9 11 15 17 18 16 15 12 18 22 21 21 22 21 21 20 21 19
20 18 16 14 12 7 3 6 7 5 9 8 7 10 11 11 11 7 14 13 14 14 14 15 17 7 12 11 16 17 18 17 18 15 16 19 26 25 27 26 23 21 14 12 15
20 18 15 13 5 1 2 5 7 3 8 15 10 9 8 9 12 13 8 14 11 15 14 14 13 6 11 13 13 16 13 14 11 14 15 18 18 19 19 12 13 10 12 7 12
20 19 15 7 11 6 7 8 6 5 8 10 11 7 5 14 4 15 10 13 17 17 11 15 14 12 16 16 14 16 16 18 14 18 20 21 16 16 20 18 11 9 9 8 11
21 19 15 7 9 4 7 4 6 9 6 8 6 9 14 14 14 8 10 13 15 18 19 22 18 17 17 15 15 13 16 16 18 18 19 22 20 17 15 15 13 10 11 6 9
24 18 10 9 8 8 6 6 8 9 4 5 6 11 12 13 12 14 17 17 16 18 19 22 23 23 21 20 19 18 16 14 17 15 17 18 7 10 6 3 5 16 8 6 11
24 15 10 9 7 6 7 9 9 7 5 5 7 13 15 15 16 14 17 18 18 20 19 18 20 18 18 20 16 21 13 12 15 16 17 4 10 4 3 1 7 4 9 9 11
27 7 10 6 5 5 9 10 13 12 6 8 12 16 18 16 6 12 12 17 18 18 18 14 20 18 11 9 13 16 19 15 19 19 17 22 26 21 15 9 8 11 9 8 9
8 6 7 6 3 7 9 15 16 2 9 12 15 10 15 15 11 15 14 7 6 12 15 16 20 19 18 14 13 18 17 14 7 15 22 18 21 14 11 14 12 8 9 12 10
8 6 7 2 4 8 10 14 13 8 9 9 14 16 18 18 17 18 18 15 10 12 11 14 17 19 16 19 19 14 19 19 19 14 12 15 13 9 8 6 5 5 9 10 12
5 5 6 4 8 5 8 6 4 13 14 16 16 17 17 18 20 21 22 17 6 11 14 13 8 16 21 18 13 18 17 15 9 17 16 17 20 15 7 2 2 6 13 17 15
7 6 5 5 6 7 10 15 15 15 14 9 12 11 13 15 15 14 15 13 9 12 10 11 7 14 18 19 18 12 16 18 17 18 24 20 15 15 7 10 15 11 12 12 14
6 5 4 6 2 8 12 15 9 7 10 14 17 15 16 18 16 16 18 12 6 11 6 6 16 20 18 21 6 5 17 15 14 13 20 23 25 26 20 16 15 16 15 15 15
2 3 4 6 10 13 12 15 17 14 9 9 9 13 13 16 17 20 19 18 16 9 8 12 19 20 21 24 24 26 23 23 23 24 22 24 24 22 21 20 20 18 20 18 15
6 5 5 11 12 12 12 12 16 13 11 15 16 18 17 17 18 21 22 21 20 17 16 12 13 21 25 25 27 27 25 26 26 27 27 26 30 27 29 22 24 18 12 18 14
4 2 4 8 8 12 12 11 16 18 13 11 12 13 16 17 18 18 19 20 19 19 19 18 14 14 19 21 23 18 24 23 22 23 22 25 23 23 22 20 10 15 15 17 18
Wind_Direction
337 338 337 335 335 332 328 327 324 322 319 315 315 314 314 313 301 252 254 57 33 355 260 257 235 233 228 242 238 235 251 247 246 252 252 214 241 197 250 244 260 218 269 301 347
336 332 332 332 330 328 326 325 321 318 313 310 309 309 310 315 292 259 100 124 156 269 241 233 225 214 226 224 231 232 239 244 259 261 266 242 236 204 225 242 258 221 239 269 355
335 333 332 331 328 328 326 324 319 314 310 309 309 309 309 308 263 103 117 152 209 252 263 272 277 245 240 231 230 226 246 264 263 263 269 273 266 204 235 240 236 252 234 249 316
332 331 332 330 329 329 327 323 317 313 307 305 304 304 307 278 305 92 138 179 219 267 256 244 236 235 241 242 233 247 252 264 269 277 280 264 280 270 201 239 247 262 295 235 253
331 329 330 329 328 325 323 319 312 305 300 296 294 299 291 226 236 121 155 185 225 242 278 281 263 252 258 251 253 246 268 272 272 266 280 272 254 262 265 222 239 267 279 271 230
331 331 328 326 324 322 319 312 305 298 289 281 283 294 249 255 86 137 192 185 258 243 267 277 305 337 296 285 262 264 282 279 273 242 255 255 254 255 254 250 250 233 249 256 247
329 327 326 324 323 321 318 311 303 290 276 263 268 264 263 301 131 160 187 228 168 276 273 227 295 267 303 271 256 268 268 255 252 254 255 259 258 254 262 260 259 215 234 253 238
332 330 326 322 320 319 316 314 301 273 252 250 253 260 267 103 210 201 201 233 225 250 271 296 268 273 278 280 262 254 254 258 247 231 231 240 259 258 250 248 238 240 254 260 262
332 328 326 322 320 317 315 315 304 206 207 215 231 233 236 114 211 213 208 246 163 233 240 279 257 260 262 247 253 230 254 259 250 176 235 244 258 264 252 219 255 249 245 251 264
332 329 324 321 318 317 313 305 155 170 204 210 258 247 224 204 185 220 215 264 245 243 239 231 236 238 226 243 256 282 259 224 263 255 191 244 258 264 260 209 229 245 249 246 245
333 328 323 318 313 314 308 202 204 194 211 281 125 281 297 172 209 222 196 217 242 241 256 202 260 244 254 264 289 320 292 287 292 291 282 280 274 273 270 264 255 245 251 245 240
335 331 322 313 306 306 274 296 29 333 295 203 247 246 263 233 222 228 199 231 214 249 231 245 246 252 277 291 272 267 271 268 269 267 277 273 271 273 268 260 255 256 252 247 231
337 332 322 311 312 271 301 22 313 313 259 159 214 218 193 209 239 230 196 228 254 250 249 258 289 10 295 247 246 253 263 276 282 304 293 281 266 256 253 241 244 246 253 260 265
337 332 324 317 287 18 189 341 306 336 269 149 187 200 186 222 237 231 223 238 241 257 272 263 288 204 246 243 264 274 278 282 292 274 273 287 293 290 290 231 211 233 250 226 219
338 334 325 293 319 261 0 318 330 231 277 143 139 88 194 216 57 194 215 233 251 272 232 263 252 227 241 262 272 287 299 287 270 276 281 268 263 270 249 244 237 183 202 194 194
336 331 324 219 237 352 305 310 242 234 246 159 177 213 214 217 243 241 201 230 271 275 266 269 257 263 248 272 278 288 281 269 263 258 254 259 251 260 267 191 185 162 191 202 200
331 322 287 310 324 338 307 232 239 247 87 189 225 215 245 262 248 230 242 242 238 253 247 242 241 240 242 246 256 241 255 261 256 241 254 253 254 283 1 131 286 177 230 281 244
325 312 209 271 308 306 262 238 257 287 301 100 292 278 261 263 259 250 258 254 252 258 268 277 274 263 218 230 261 268 248 277 282 285 294 347 255 236 10 320 188 311 272 267 263
313 213 247 199 289 282 260 243 261 348 22 308 301 269 262 250 243 285 259 266 275 278 248 257 266 258 230 251 237 261 262 266 285 274 276 279 274 274 176 179 216 238 238 238 244
301 257 246 121 261 258 249 263 297 300 304 289 276 293 286 290 235 228 262 271 286 295 289 278 278 273 278 222 240 266 282 264 253 269 262 268 267 265 151 188 183 198 237 244 250
262 251 100 170 226 241 250 280 313 317 316 281 281 282 286 285 281 281 282 282 223 257 266 277 272 267 261 252 248 241 234 241 255 232 262 277 284 97 100 244 220 282 293 294 283
281 265 113 192 254 239 274 339 6 293 287 271 265 276 277 281 283 279 277 272 223 228 264 278 283 283 274 277 257 271 261 216 260 261 250 262 262 135 203 239 258 251 242 249 272
301 288 135 257 267 299 314 304 295 285 285 277 267 270 283 287 291 274 277 282 299 306 297 313 257 271 268 253 253 271 267 264 262 261 252 268 249 308 35 255 239 302 293 293 293
287 300 165 204 291 304 321 300 294 279 275 282 280 285 284 276 269 265 274 267 255 251 91 310 272 268 271 288 157 245 269 262 280 259 268 255 264 271 246 276 297 288 291 286 282
297 25 9 311 328 330 302 294 292 293 299 274 273 267 274 286 290 286 293 290 274 229 212 230 255 270 279 280 276 278 277 273 265 260 259 271 264 266 276 290 285 286 272 273 275
320 340 347 294 302 300 299 282 301 312 317 291 288 304 302 288 293 300 296 288 291 296 278 236 263 271 271 268 272 271 275 268 261 264 269 256 261 267 269 276 269 283 299 282 287
11 286 279 281 309 295 299 317 306 310 298 289 287 295 289 296 309 306 301 293 286 280 277 282 278 266 272 270 273 263 254 255 261 257 264 267 263 264 273 275 295 286 266 279 289